User: anonymous   Login
Location: Coleman
(45.0650°N, 88.0340°W)
Time: 19:05:19
(UTC-05:00)
Language:

Iridium 97 - Orbit

View from above orbital plane
View from above orbital plane
View from above satellite
View from above satellite

Ground track
Ground track

The orbit data is extracted from the following two-line orbital elements,

1 27450U 02031A   15210.45639939  .00000051  00000-0  11201-4 0  9996
2 27450 086.3939 246.7636 0002141 085.7103 274.4337 14.34216624691519
Epoch (UTC): 29 July 2015 10:57:12
Eccentricity: 0.0002141
inclination: 86.3939°
perigee height: 776 km
apogee height: 779 km
right ascension of ascending node: 246.7636°
argument of perigee: 85.7103°
revolutions per day: 14.34216624
mean anomaly at epoch: 274.4337°
orbit number at epoch: 69151

The dashed part of the orbit path shows where the satellite is in the earth's shadow,  

DLR